Vertical_Velocity
-0 2 3 -2 -1 -2 -3 -2 -3 -1 -2 -1 -1 -1 -1 -1 -0 -0 -0 2 -0 -0 1 -0 -0 1 -0 0 -2 -0 -1 1 0 1 1 0 -1 0 0 -1 -0 -0 -1
-3 5 2 -2 -1 -1 -3 -2 -1 -2 -1 -1 -0 1 1 0 -1 -1 -1 -0 1 2 -2 0 -2 1 -1 -1 1 0 -0 0 1 0 -0 -1 -2 -1 -1 -0 -0 -0 0
-1 1 4 -1 -1 2 -4 -4 -2 -3 -3 -2 -2 -2 -0 -0 0 -1 -0 -1 -1 -1 1 0 -1 -0 -0 1 1 -0 -0 -1 -0 1 -1 -1 0 -0 -0 1 -0 0 -2
3 6 5 1 0 0 0 -4 -2 -0 -1 -2 -1 -1 -2 -0 0 -0 -1 -1 -2 -1 -1 -1 -0 -0 -0 1 1 0 0 0 -1 -1 0 0 -1 -0 -0 0 -1 -1 -0
5 2 0 2 -0 -0 0 -3 -2 -2 -3 -4 -0 -2 -1 -0 -0 1 0 -0 1 0 0 -0 0 -0 2 -0 -0 0 -1 0 -1 0 0 -1 -0 -0 1 1 0 2 0
2 3 1 1 0 3 0 -2 -3 -2 -2 -3 -3 -2 -2 -1 -0 0 1 -0 0 -0 -0 -1 -1 -1 -0 -1 -0 1 0 -1 -2 -1 -1 0 -0 2 1 1 -0 1 -0
1 2 3 1 0 1 1 -1 -3 -2 -3 -3 -1 -2 -3 -2 -3 -2 0 1 -0 1 0 1 1 1 0 1 -0 1 1 -0 -1 -2 0 -0 -0 -0 1 -1 2 0 1
1 1 3 2 1 2 0 1 -1 -2 -3 -3 -3 -2 -3 -2 -3 -3 -1 0 1 1 -0 -1 -1 1 -0 -0 0 0 0 1 1 -1 -0 1 -0 -0 -0 -0 1 1 0
1 2 1 3 3 2 1 2 0 -1 -3 -2 -0 -1 -2 -2 -1 -1 -1 -2 -3 -1 -1 -1 -2 -1 0 -2 -1 -1 -1 0 -1 0 -1 -2 1 -1 -1 2 -1 -2 0
-0 1 1 1 2 1 1 2 3 1 -0 2 -2 -1 -0 -2 -1 -1 -0 -2 -3 -2 -1 -1 -0 -1 -2 -0 -0 -1 0 -1 0 0 -1 -2 0 1 -2 2 2 -1 -2
-1 -0 1 1 1 2 1 1 1 1 2 1 2 -1 -1 -1 -1 0 -2 -2 -1 -1 0 -1 -1 0 -0 -1 -0 1 0 -1 -1 -2 -1 -0 1 -1 -3 -1 1 2 0
3 1 0 4 4 2 2 2 2 0 -1 2 1 2 1 -0 0 1 1 1 -0 -0 0 0 -1 -0 -1 -3 -2 -2 -1 -2 1 -1 -1 -1 2 0 0 -3 -1 -1 3
-2 -1 -0 0 1 1 3 2 0 1 3 1 3 1 2 2 0 0 2 1 1 0 -1 1 0 -0 1 -0 1 -1 -1 -2 -2 -0 -1 -2 -1 0 0 1 -1 0 1
-2 -2 1 -1 1 1 2 3 -1 0 -1 0 3 1 0 2 2 1 0 -1 1 -1 0 0 0 1 -1 -1 1 -3 -1 -1 -2 -2 -0 -1 -2 -2 1 0 -1 1 0
-2 -3 1 -0 -2 0 -0 -4 4 3 1 3 1 -0 0 2 1 -0 -2 -1 1 2 3 2 2 1 -0 -1 -1 0 -1 -1 -3 -2 1 0 -0 -1 -1 1 -2 0 -1
-1 1 -3 -4 -1 0 2 5 1 4 3 -1 -2 0 2 1 1 1 0 1 -0 2 1 0 0 1 1 -2 -1 -3 -1 -1 -3 -1 -2 -2 1 -1 -3 2 -1 -2 -2
-1 -1 -2 2 -2 -6 -3 3 -0 10 1 -0 -0 -0 -2 0 3 3 -1 0 0 1 1 1 -2 1 0 -0 -2 -2 -2 0 -2 -5 -2 -1 -1 -1 -0 -0 2 -1 -1
-0 0 1 -2 -1 -0 -2 -3 3 3 4 1 0 0 -1 0 1 -0 -1 2 -1 0 -0 2 1 -0 0 0 -1 -3 -1 -0 -2 -0 -3 -2 -1 0 -1 -0 -0 0 -1
-3 -1 0 -0 -3 1 -3 -1 0 4 0 -1 2 0 -1 0 1 -1 0 1 -2 2 -1 -2 2 1 -1 1 0 -2 -2 -2 -1 -0 -0 -0 -2 -0 -0 -1 -0 -0 0
4 1 -1 -1 2 -4 0 -2 -3 -6 -4 -4 -1 1 -1 4 -0 -1 1 -0 -1 1 -2 2 1 1 -1 3 -1 -2 0 -1 -2 1 -2 -2 1 1 0 -1 -1 -0 -0
-4 2 1 -3 0 -1 -1 -3 -5 -4 2 4 1 7 3 -3 3 -1 -2 -2 -1 -1 3 0 -2 -0 3 1 -1 -1 -0 -3 -0 -4 -0 -0 -1 -1 1 0 -0 -2 -1
0 -3 -1 1 1 2 -0 1 -4 0 -3 -1 4 0 0 -0 0 -0 1 1 4 1 -1 0 2 2 0 1 -1 -1 -3 -3 0 -0 -0 -1 -1 -1 1 1 1 -0 -2
-1 -2 -3 0 -2 0 3 1 -1 1 -1 -2 -8 -1 -4 -1 2 1 -2 7 4 1 -3 2 1 -0 -3 -1 2 -0 -3 2 -0 1 0 -1 0 -0 1 0 0 1 1
-2 -1 1 1 1 2 -4 -1 5 5 -1 6 5 8 5 5 -2 3 -0 4 2 -1 -5 8 2 2 -0 -0 -2 3 -0 -0 -3 0 2 2 2 2 1 1 -1 -1 0
1 -1 -2 -0 1 1 -1 -3 -5 -6 1 4 3 5 -0 7 4 7 -0 3 -1 3 8 7 3 -1 4 -4 -1 0 -1 -1 -2 -3 -3 2 1 2 3 2 -0 -1 0
0 1 0 0 -0 1 5 7 6 3 2 -1 3 2 3 4 6 4 5 2 5 1 -1 8 7 2 5 4 1 1 0 -1 0 -5 -6 -5 2 1 -3 -5 1 -1 0
Height
3187 3188 3189 3190 3189 3189 3190 3190 3190 3190 3189 3189 3188 3187 3187 3186 3185 3185 3184 3183 3182 3182 3182 3182 3182 3183 3184 3185 3186 3186 3188 3189 3190 3191 3191 3191 3191 3191 3191 3191 3190 3190 3190
3187 3188 3189 3189 3190 3190 3190 3191 3190 3190 3190 3189 3188 3188 3187 3186 3185 3185 3185 3184 3184 3183 3183 3183 3183 3184 3184 3185 3186 3187 3188 3189 3189 3190 3190 3190 3190 3190 3189 3189 3188 3188 3188
3185 3187 3188 3189 3190 3190 3190 3191 3191 3191 3191 3190 3190 3189 3188 3187 3186 3185 3185 3185 3185 3184 3185 3184 3184 3184 3185 3185 3186 3186 3187 3187 3188 3188 3189 3189 3189 3188 3188 3187 3187 3186 3186
3184 3186 3188 3189 3189 3190 3190 3191 3192 3192 3192 3192 3191 3190 3189 3187 3186 3186 3186 3186 3185 3185 3185 3185 3185 3186 3186 3186 3186 3187 3187 3188 3188 3188 3188 3188 3187 3187 3186 3186 3186 3185 3185
3183 3185 3187 3188 3189 3190 3191 3191 3192 3193 3193 3192 3192 3190 3189 3188 3187 3186 3186 3186 3186 3186 3186 3186 3186 3187 3187 3187 3187 3187 3187 3187 3187 3187 3187 3186 3186 3186 3185 3185 3184 3184 3184
3182 3184 3186 3188 3189 3189 3190 3191 3192 3192 3193 3192 3192 3191 3190 3189 3188 3187 3187 3187 3187 3187 3187 3187 3188 3188 3188 3188 3188 3188 3187 3187 3187 3187 3186 3185 3185 3184 3184 3184 3183 3183 3183
3181 3183 3185 3186 3188 3189 3189 3191 3191 3192 3192 3192 3191 3191 3191 3190 3189 3189 3188 3189 3188 3188 3188 3188 3188 3188 3188 3188 3188 3188 3187 3187 3187 3186 3186 3186 3185 3184 3184 3183 3183 3183 3182
3180 3181 3183 3185 3186 3187 3189 3190 3191 3191 3192 3192 3192 3191 3191 3191 3190 3190 3190 3189 3189 3189 3189 3189 3189 3189 3189 3188 3188 3188 3188 3187 3186 3186 3185 3185 3184 3183 3183 3182 3182 3181 3181
3178 3180 3181 3182 3184 3186 3187 3189 3190 3190 3191 3191 3192 3192 3191 3191 3191 3191 3190 3191 3190 3190 3190 3189 3189 3189 3189 3189 3188 3188 3187 3186 3186 3185 3185 3184 3183 3182 3181 3181 3180 3179 3179
3176 3177 3178 3180 3182 3184 3185 3187 3188 3189 3189 3190 3191 3191 3191 3191 3191 3191 3191 3191 3190 3190 3190 3190 3190 3190 3189 3189 3188 3187 3187 3186 3185 3184 3183 3182 3181 3181 3180 3179 3179 3177 3176
3173 3175 3176 3177 3179 3181 3183 3184 3186 3187 3188 3189 3189 3189 3190 3190 3190 3191 3191 3190 3190 3190 3190 3190 3189 3189 3188 3188 3187 3187 3186 3185 3184 3183 3182 3181 3180 3178 3177 3176 3176 3174 3173
3171 3172 3174 3175 3176 3178 3180 3181 3183 3185 3186 3186 3187 3187 3188 3189 3189 3189 3189 3189 3189 3189 3189 3189 3188 3188 3187 3186 3186 3185 3184 3183 3182 3181 3180 3179 3178 3176 3175 3173 3173 3172 3170
3167 3169 3170 3172 3172 3174 3176 3178 3180 3181 3182 3183 3184 3185 3186 3186 3186 3187 3187 3187 3187 3187 3187 3187 3186 3186 3185 3185 3184 3184 3183 3182 3181 3180 3178 3177 3176 3174 3172 3171 3170 3169 3168
3163 3165 3166 3168 3169 3170 3171 3173 3175 3177 3179 3180 3181 3181 3183 3183 3183 3183 3184 3184 3185 3185 3184 3184 3184 3184 3183 3182 3182 3181 3180 3179 3178 3177 3176 3175 3173 3172 3170 3168 3167 3167 3166
3158 3161 3163 3164 3165 3166 3167 3169 3170 3172 3174 3175 3176 3177 3178 3179 3179 3179 3180 3181 3181 3181 3180 3180 3180 3180 3180 3179 3178 3178 3177 3176 3175 3174 3173 3172 3170 3169 3168 3167 3166 3164 3163
3154 3156 3157 3160 3161 3163 3163 3164 3165 3167 3168 3169 3170 3171 3173 3174 3175 3175 3176 3176 3176 3176 3176 3176 3176 3176 3175 3175 3175 3174 3173 3171 3170 3170 3169 3168 3167 3166 3165 3164 3163 3162 3161
3149 3150 3152 3153 3154 3156 3158 3160 3161 3162 3162 3163 3165 3166 3167 3168 3169 3170 3171 3171 3171 3171 3172 3171 3172 3171 3171 3171 3170 3170 3169 3167 3166 3165 3165 3164 3163 3162 3162 3161 3160 3159 3159
3141 3143 3145 3147 3147 3149 3151 3153 3155 3156 3156 3158 3160 3160 3161 3162 3163 3163 3164 3165 3166 3166 3167 3166 3167 3167 3166 3166 3165 3165 3164 3163 3162 3161 3160 3160 3159 3159 3158 3157 3156 3156 3155
3132 3133 3135 3137 3139 3142 3144 3145 3147 3148 3149 3151 3153 3154 3155 3156 3157 3157 3158 3159 3160 3160 3161 3161 3161 3161 3161 3160 3160 3159 3159 3158 3157 3156 3155 3155 3155 3155 3154 3154 3153 3152 3151
3124 3124 3125 3127 3130 3133 3135 3136 3137 3139 3142 3143 3146 3147 3148 3149 3150 3151 3152 3152 3153 3154 3155 3155 3155 3156 3156 3155 3154 3154 3154 3153 3152 3151 3150 3150 3150 3150 3150 3149 3149 3148 3147
3113 3114 3116 3118 3120 3122 3123 3125 3128 3130 3134 3135 3138 3140 3141 3142 3143 3143 3144 3145 3146 3147 3149 3149 3149 3150 3150 3149 3149 3149 3148 3147 3146 3146 3145 3145 3144 3145 3145 3144 3144 3143 3142
3102 3103 3104 3107 3111 3112 3113 3116 3118 3122 3124 3127 3129 3131 3133 3134 3135 3136 3137 3138 3139 3140 3141 3142 3143 3143 3143 3143 3143 3142 3142 3142 3141 3140 3139 3139 3139 3139 3139 3139 3138 3137 3136
3095 3096 3096 3098 3100 3102 3104 3107 3107 3110 3111 3115 3117 3122 3124 3126 3128 3129 3130 3131 3132 3133 3134 3136 3136 3136 3137 3137 3137 3136 3135 3135 3135 3134 3134 3133 3133 3133 3133 3133 3132 3130 3129
3088 3089 3089 3090 3092 3093 3095 3095 3097 3099 3101 3106 3109 3113 3114 3116 3116 3119 3120 3122 3124 3126 3126 3128 3128 3129 3129 3130 3129 3130 3128 3128 3128 3128 3128 3127 3126 3126 3126 3126 3125 3123 3122
3083 3082 3082 3081 3082 3085 3085 3084 3087 3089 3091 3093 3095 3098 3101 3104 3104 3107 3109 3112 3114 3116 3118 3119 3120 3120 3121 3121 3121 3122 3120 3120 3121 3121 3121 3121 3120 3120 3119 3119 3117 3115 3113
3077 3077 3077 3077 3076 3075 3075 3076 3076 3078 3081 3082 3085 3086 3089 3091 3093 3094 3097 3100 3103 3105 3107 3110 3111 3112 3113 3113 3113 3113 3112 3112 3112 3112 3113 3113 3112 3110 3110 3110 3108 3106 3104